{"data":{"norad_id":52500,"intl_designator":"2022-049BB","name":"STARLINK-3866","alt_names":[],"object_type":"PAYLOAD","status":"ACTIVE","operator":null,"country":"US","launch_date":"2022-05-06","launch_site_code":"AFETR","launch_vehicle":null,"mission":null,"orbit_class":"UNKNOWN","rcs_meters":null,"size_class":null,"mass_kg":null,"dimensions":null,"purposes":["comms"],"wikipedia_slug":null,"has_3d_model":false,"image_url":null,"decayed_at":null,"tle_current":{"epoch":"2026-05-25T03:54:50.264928Z","epoch_age_seconds":61293,"freshness":"FRESH","line1":"1 52500U 22049BB  26145.16308177 -.00001715  00000+0 -89669-4 0  9997","line2":"2 52500  53.2143  55.8154 0001666  89.9224 270.1959 15.08849131224071","mean_motion":15.08849131,"eccentricity":0.0001666,"inclination_deg":53.2143,"raan_deg":55.8154,"arg_perigee_deg":89.9224,"mean_anomaly_deg":270.1959,"bstar":-8.9669e-5,"rev_number":22407,"period_min":95.436977124786,"perigee_km":538.56296506772,"apogee_km":540.86799351382,"semimajor_km":6917.8524792908,"source":"CELESTRAK","updated_at":"2026-05-25T13:38:17.159903Z"}}}